Weather History for KPSM - March, 2015

Change the Weather History Date:

Wednesday, March 18, 2015

  Actual Average Record
Temperature  
Mean Temperature 22 °F -  
Max Temperature 25 °F 39 °F 80 °F (2012)
Min Temperature 18 °F 24 °F 5 °F (1976)
Degree Days  
Heating Degree Days 44    
Moisture  
Dew Point 1 °F    
Average Humidity 41    
Maximum Humidity 58    
Minimum Humidity 30    
Precipitation  
Precipitation 0.00 in - - ()
Snow  
Snow 0.00 in - - ()
Snow Depth 9.00 in    
Sea Level Pressure  
Sea Level Pressure 29.84 in    
Wind  
Wind Speed 22 mph (WNW)    
Max Wind Speed 33 mph    
Max Gust Speed 52 mph    
Visibility 10 miles    
Events      
Averages and records for this station are not official NWS values.
T = Trace of Precipitation, MM = Missing Value Source: NWS Daily Summary

Daily Weather History Graph

Daily Weather History Graph

Search for Another Location

Airport or City:

Trip Planner

Search our weather history database for the weather conditions in past years. The results will help you decide how hot, cold, wet, or windy it might be!

Date:

Astronomy

Mar. 18, 2015 Rise Set
Actual Time 6:50 AM EDT 6:52 PM EDT
Civil Twilight 6:22 AM EDT 7:21 PM EDT
Nautical Twilight 5:49 AM EDT 7:54 PM EDT
Astronomical Twilight 5:15 AM EDT 8:28 PM EDT
Moon 5:34 AM EDT (3/18) 5:02 PM EDT (3/18)
Length of Visible Light 12h 58m
Length of Day
12h 02m
Waning Crescent, 5% of the Moon is Illuminated
Mar 18
Waning Crescent
Mar 20
New
Mar 27
First Quarter
Apr 4
Full
Apr 11
Last Quarter

Hourly Weather History & Observations

Time (EDT) Temp. Windchill Dew Point Humidity Pressure Visibility Wind Dir Wind Speed Gust Speed Precip Events Conditions
12:58 AM 25.0 °F 12.2 °F 5.2 °F 43% 29.69 in 10.0 mi WNW 16.1 mph 31.1 mph N/A   Clear
1:58 AM 23.9 °F 10.3 °F 4.3 °F 43% 29.70 in 10.0 mi WNW 17.3 mph 29.9 mph N/A   Partly Cloudy
2:58 AM 23.0 °F 5.7 °F 5.4 °F 47% 29.69 in 10.0 mi WNW 28.8 mph 36.8 mph N/A   Partly Cloudy
3:58 AM 22.1 °F 8.0 °F 8.4 °F 56% 29.70 in 10.0 mi WNW 17.3 mph 25.3 mph N/A   Partly Cloudy
4:58 AM 21.0 °F 6.2 °F 8.4 °F 58% 29.72 in 10.0 mi WNW 18.4 mph 35.7 mph N/A   Scattered Clouds
5:58 AM 19.8 °F 3.3 °F 5.7 °F 55% 29.74 in 10.0 mi WNW 21.9 mph 29.9 mph N/A   Partly Cloudy
6:58 AM 18.9 °F 1.4 °F 5.9 °F 57% 29.77 in 10.0 mi WNW 24.2 mph 32.2 mph N/A   Clear
7:58 AM 19.9 °F 2.8 °F 0.3 °F 42% 29.78 in 10.0 mi WNW 24.2 mph 42.6 mph N/A   Clear
8:58 AM 20.7 °F 1.4 °F 0.3 °F 41% 29.79 in 10.0 mi NW 33.4 mph 48.3 mph N/A   Partly Cloudy
9:58 AM 21.4 °F 2.9 °F -0.0 °F 39% 29.81 in 10.0 mi NW 31.1 mph 44.9 mph N/A   Partly Cloudy
10:58 AM 22.6 °F 7.5 °F 0.5 °F 38% 29.80 in 10.0 mi WNW 20.7 mph 38.0 mph N/A   Partly Cloudy
11:58 AM 23.2 °F 6.8 °F 0.9 °F 38% 29.80 in 10.0 mi WNW 25.3 mph 33.4 mph N/A   Partly Cloudy
12:58 PM 24.4 °F 8.2 °F 1.0 °F 36% 29.80 in 10.0 mi WNW 26.5 mph 34.5 mph N/A   Partly Cloudy
1:58 PM 24.8 °F 9.0 °F -1.5 °F 32% 29.80 in 10.0 mi WNW 25.3 mph 43.7 mph N/A   Partly Cloudy
2:58 PM 25.0 °F 9.5 °F -2.2 °F 31% 29.81 in 10.0 mi West 24.2 mph 40.3 mph N/A   Partly Cloudy
3:58 PM 25.2 °F 11.2 °F -2.4 °F 30% 29.84 in 10.0 mi WNW 19.6 mph 29.9 mph N/A   Partly Cloudy
4:58 PM 23.7 °F 6.4 °F -3.5 °F 31% 29.86 in 10.0 mi NW 29.9 mph 40.3 mph N/A   Clear
5:58 PM 22.3 °F 4.7 °F -2.0 °F 35% 29.90 in 10.0 mi WNW 28.8 mph 51.8 mph N/A   Clear
6:58 PM 20.7 °F 3.8 °F -2.9 °F 36% 29.95 in 10.0 mi WNW 24.2 mph 35.7 mph N/A   Clear
7:58 PM 19.6 °F 3.9 °F -2.7 °F 37% 29.99 in 10.0 mi WNW 19.6 mph 28.8 mph N/A   Clear
8:58 PM 19.2 °F 3.0 °F -3.1 °F 37% 30.01 in 10.0 mi WNW 20.7 mph 26.5 mph N/A   Clear
9:58 PM 19.2 °F 3.8 °F -3.1 °F 37% 30.02 in 10.0 mi WNW 18.4 mph 25.3 mph N/A   Clear
10:58 PM 19.0 °F 5.6 °F -3.1 °F 38% 30.04 in 10.0 mi WNW 13.8 mph 25.3 mph N/A   Clear
11:58 PM 19.0 °F 6.1 °F -3.5 °F 37% 30.04 in 10.0 mi WNW 12.7 mph - N/A   Clear